Address 0x5c95b3d8c9733c25a7f19108ee9deae091ccfc03 1

Txn Hash Method
Block
From
To
Value [Txn Fee]
0x05b95133a1fb2e6375172c26d93ed87015b9b2a497fddfcf11242dc7f9e3d603Swap Exact Token...173304732023-01-28 13:39:152 days 20 hrs ago0x5c95b3d8c9733c25a7f19108ee9deae091ccfc03OUT 0xe8b5cf1324f0933fabbe940e30330ce34160eefb0 BTT31.8336
0x15fb6de68b034f8e8272e57a9074a5bb695e4b4e6b3d675831fb988387b537d2Swap Exact Token...173001542023-01-27 20:17:013 days 13 hrs ago0x5c95b3d8c9733c25a7f19108ee9deae091ccfc03OUT 0xe8b5cf1324f0933fabbe940e30330ce34160eefb0 BTT31.8336
0xa0532f749e0d3fb9abbef02a6610edff43c03a8a62de0378336290b8c95c50bbSwap Exact Token...164931382023-01-08 13:55:5322 days 20 hrs ago0x5c95b3d8c9733c25a7f19108ee9deae091ccfc03OUT 0xe8b5cf1324f0933fabbe940e30330ce34160eefb0 BTT31.8336
0xd97fb901fefed7886a33e241cc62fb0fcd803c5e14e0aa131f494ae95b1476a9Swap Exact Token...164926962023-01-08 13:40:4122 days 20 hrs ago0x5c95b3d8c9733c25a7f19108ee9deae091ccfc03OUT 0xe8b5cf1324f0933fabbe940e30330ce34160eefb0 BTT31.8336
0xa66c12945ee92125013cfd9521f670750143e50408de8e3289ac578b1dcee881Stake164924992023-01-08 13:33:5522 days 20 hrs ago0x5c95b3d8c9733c25a7f19108ee9deae091ccfc03OUT 0x929c1e1a3ef2ce5698a7475c8526e28ba670d5830 BTT55.2579
0xf9da9be5db05bbd8afb7d3d6d7f605ae5fc00de2bb2629923bd344d5be6db0b7Approve164924822023-01-08 13:33:2122 days 20 hrs ago0x5c95b3d8c9733c25a7f19108ee9deae091ccfc03OUT 0xf85884ec67e2c4c1396871f474865b66153b6b780 BTT13.9362
0x148810b97187058e53df49f9d7ccf55ce13b4c7abc3e4c19d02cdda455720e39Stake164923382023-01-08 13:28:2122 days 20 hrs ago0x5c95b3d8c9733c25a7f19108ee9deae091ccfc03OUT 0x7da2378cd3638cf5b18e07ad6d9134e8af4ba0090 BTT55.2651
0xec1112bfbb5b70e713ef9387cbd076a9411452241f9505e948e252d4c5d33430Approve164923122023-01-08 13:27:2922 days 20 hrs ago0x5c95b3d8c9733c25a7f19108ee9deae091ccfc03OUT 0xcdae4e5b90388b400ebd6c90f3f6ab7596c5808f0 BTT13.9362
0x1dfdf30c148e5e433a4f3a155dc88f7858d5a8bc077cc58ed0a8ca341272e693Stake164921612023-01-08 13:22:1922 days 20 hrs ago0x5c95b3d8c9733c25a7f19108ee9deae091ccfc03OUT 0x8ba65338e2c7d42cf15eab3837381adfbfe795920 BTT55.2651
0x80176b434b0c18701c6d002602d90ff387fc88e65d6ae46a0d49128a88dd0953Approve164921392023-01-08 13:21:3122 days 20 hrs ago0x5c95b3d8c9733c25a7f19108ee9deae091ccfc03OUT 0x167ff25d288e861ebfc04954b78b8a86e6c550830 BTT13.9362
0xcc58daf4787b5ca80cc578de8b0aecf192b311f2553705528c0b5897a0edff82Swap Exact Token...160650012022-12-29 8:38:3933 days 1 hr ago0x5c95b3d8c9733c25a7f19108ee9deae091ccfc03OUT 0xe8b5cf1324f0933fabbe940e30330ce34160eefb0 BTT31.8564
0x97d31eeaf5d06d06336c44fb5a4204a46f3997a38dcecbfa045d2e7c944efff1Swap Exact Token...156947002022-12-20 12:29:3341 days 21 hrs ago0x5c95b3d8c9733c25a7f19108ee9deae091ccfc03OUT 0xe8b5cf1324f0933fabbe940e30330ce34160eefb0 BTT31.86
0xa5fe4f2afb7eb7716d4f8432862aeb2644764c7a190779ad0b6b8dd61ff5f45f0xa7f5c104156946562022-12-20 12:28:0541 days 21 hrs ago0x5c95b3d8c9733c25a7f19108ee9deae091ccfc03OUT Kyber Swap: Aggregation Router 30 BTT45.8175
0x62729cfd11d47817b6195d59280047644a11eaa303af7f9cd6f87020440b79d8Swap Exact Token...156651062022-12-19 19:32:1742 days 14 hrs ago0x5c95b3d8c9733c25a7f19108ee9deae091ccfc03OUT 0xe8b5cf1324f0933fabbe940e30330ce34160eefb0 BTT31.86
0xd4f16cb1eb4b3d13781cd762198aec3c9a52a59388e906d45baf6774d32771390xa7f5c104156616832022-12-19 17:34:3542 days 16 hrs ago0x5c95b3d8c9733c25a7f19108ee9deae091ccfc03OUT Kyber Swap: Aggregation Router 30 BTT45.8283
0x46876c76fc521749654a45ee0b1d8e7d60e1bc47de8d8926ebaff258c58b1f5d0xa7f5c104156580672022-12-19 15:30:1942 days 18 hrs ago0x5c95b3d8c9733c25a7f19108ee9deae091ccfc03OUT Kyber Swap: Aggregation Router 30 BTT45.8247
0xd1eb46b9487c0e9eae5ce4161189e475ee5a7c72599d08352a71ade4936e4e54Swap Tokens For ...156578852022-12-19 15:24:0342 days 18 hrs ago0x5c95b3d8c9733c25a7f19108ee9deae091ccfc03OUT 0xe8b5cf1324f0933fabbe940e30330ce34160eefb0 BTT35.08032
0x8fbd51613332acd42085d7d5e80bf6e9c52b38a1d0bb4750b1c9296f3d0d2dc20xb47fe4c3156574742022-12-19 15:09:5742 days 19 hrs ago0x5c95b3d8c9733c25a7f19108ee9deae091ccfc03OUT 0x083318c0596604035c18c36033c7dbc9f13114950 BTT32.8794
0x4de88acb16a769395c1b4e6ae4db694047af572088e8a015e332886135a57af10xa7f5c104156573772022-12-19 15:06:3542 days 19 hrs ago0x5c95b3d8c9733c25a7f19108ee9deae091ccfc03OUT Kyber Swap: Aggregation Router 30 BTT45.8247
0x2f52fa46a1d00cecddbd768ec267195ab0cffff228e6f614c9667af8e54e3811Swap Tokens For ...156573452022-12-19 15:05:3142 days 19 hrs ago0x5c95b3d8c9733c25a7f19108ee9deae091ccfc03OUT 0xe8b5cf1324f0933fabbe940e30330ce34160eefb0 BTT31.8912
0xac41be8407efd376b36249b9d0a7e07fcc6195b1e4ac57d4b20f3ac694c30dc7Swap Tokens For ...156570842022-12-19 14:56:2942 days 19 hrs ago0x5c95b3d8c9733c25a7f19108ee9deae091ccfc03OUT 0xe8b5cf1324f0933fabbe940e30330ce34160eefb0 BTT31.8912
0x98fd98887d51546e1cc2a53e2489798dfc95a78334428f436125d0617f04448eSwap Tokens For ...156560852022-12-19 14:22:1142 days 19 hrs ago0x5c95b3d8c9733c25a7f19108ee9deae091ccfc03OUT 0xe8b5cf1324f0933fabbe940e30330ce34160eefb0 BTT31.8912
0xb3a6dbc878797d45ebcb5ddc41e7be162902d7c406bee312ce3890d43ad50e12Swap Tokens For ...156551152022-12-19 13:48:5142 days 20 hrs ago0x5c95b3d8c9733c25a7f19108ee9deae091ccfc03OUT 0xe8b5cf1324f0933fabbe940e30330ce34160eefb0 BTT31.8912
0x6977d351716f262de147965d402da56a6de1d8872a841298a1d6c7d3b4befd84Swap Exact Token...156543192022-12-19 13:21:2742 days 20 hrs ago0x5c95b3d8c9733c25a7f19108ee9deae091ccfc03OUT 0xe8b5cf1324f0933fabbe940e30330ce34160eefb0 BTT31.8672
0x6995ff1695d2deed7528f693e607c684ce7ce657cdc641eb34b418d84fccc6d4Swap Exact Token...156541702022-12-19 13:16:2142 days 20 hrs ago0x5c95b3d8c9733c25a7f19108ee9deae091ccfc03OUT 0xe8b5cf1324f0933fabbe940e30330ce34160eefb0 BTT31.8672
[ Download CSV Export 
Latest 1 internal transaction
Parent Txn Hash Block From To Value
0xcbf32cc955cdfadd34d80d45045b27e21830480d5a53f172d4c34f1195f4bd8665345732022-05-15 15:46:27260 days 18 hrs ago 0xe8b5cf1324f0933fabbe940e30330ce34160eefb0x5c95b3d8c9733c25a7f19108ee9deae091ccfc030.000013933770455198 BTT
[ Download CSV Export 
Loading

Contract Name:
0

Compiler Version
0

Optimization Enabled:
0

Other Settings:
-NA-
Block Transaction Gas Used Reward
Age Block Fee Address BC Fee Address Voting Power Jailed Incoming
Block Uncle Number Difficulty Gas Used Reward
Loading
Make sure to use the "Vote Down" button for any spammy posts, and the "Vote Up" for interesting conversations.